[[{"header":{"parameterUnit":"m.s-1","parameterCategory":1,"la1":30.2991,"la2":30.254,"lo1":-89.0895,"lo2":-89.0444,"dy":0.0017,"dx":0.0017,"nx":28,"ny":28,"refTime":"2024-12-17T03:00:00:Z","depth":0,"parameterNumber":2,"parameterNumberName":"U-component_of_WINDS"},"data":[0,0,0,0,0,0,0,0,0,0,0,0,0,0,0,0,0,0,0,0,0,0,0,0,0,0,0,0,0,0,0,0,0,0,0,0,0,0,0,0,0,0,0,0,0,0,0,0,0,0,0,0,0,0,0,0,0,0,-0.1511,-0.1512,0,-0.1539,-0.154,-0.154,-0.155,-0.155,-0.155,-0.155,-0.1578,-0.1579,-0.1579,0,0,0,0,0,0,0,0,0,0,0,0,0,-0.1466,-0.1467,-0.1511,-0.1512,-0.1512,-0.1539,-0.154,-0.154,-0.155,-0.155,-0.155,-0.155,-0.1577,-0.1578,-0.1579,0,0,0,0,0,0,0,0,0,0,0,0,0,-0.1489,-0.1467,-0.1511,-0.152,-0.1522,-0.1539,-0.154,-0.154,-0.155,-0.155,-0.155,-0.155,-0.1577,-0.1578,-0.158,-0.159,0,0,-0.1583,-0.1584,0,0,0,0,0,0,0,0,-0.1488,-0.1491,-0.1519,-0.152,-0.1521,-0.1541,-0.1534,-0.1557,-0.155,-0.1539,-0.155,-0.155,-0.1566,-0.1568,-0.1573,-0.1591,-0.1592,-0.1583,-0.1584,-0.1585,-0.1585,0,0,0,0,0,0,0,-0.1486,-0.149,-0.1522,-0.1519,-0.1521,-0.1523,-0.1526,-0.1538,-0.1553,-0.154,-0.1541,-0.1544,-0.1566,-0.1572,-0.1574,-0.1593,-0.1583,-0.1584,-0.1585,-0.1586,-0.1621,-0.1621,0,0,0,0,0,0,-0.1483,-0.1488,-0.1522,-0.1523,-0.1504,-0.1524,-0.1528,-0.1535,-0.1553,-0.1555,-0.1544,-0.1545,-0.157,-0.1573,-0.1575,-0.1589,-0.1585,-0.1586,-0.1587,-0.1621,-0.1621,-0.1622,0,0,0,0,0,0,-0.1482,-0.1486,-0.152,-0.1506,-0.1511,-0.1525,-0.1533,-0.1536,-0.1541,-0.1556,-0.1558,-0.1548,-0.157,-0.1573,-0.1586,-0.159,-0.1586,-0.1587,-0.1621,-0.1621,-0.1621,-0.1616,0,0,0,0,0,0,-0.1481,-0.1486,-0.149,-0.1506,-0.1511,-0.1531,-0.1533,-0.1536,-0.1544,-0.1544,-0.156,-0.1562,-0.157,-0.1584,-0.1588,-0.1591,-0.1588,-0.1621,-0.1621,-0.1621,-0.1616,-0.1616,-0.1616,0,0,0,0,0,-0.1479,-0.1487,-0.149,-0.1494,-0.1517,-0.1531,-0.1534,-0.1544,-0.1544,-0.1548,-0.1558,-0.1562,-0.1589,-0.1586,-0.1589,-0.1594,-0.162,-0.1621,-0.1621,-0.1616,-0.1616,-0.1616,0,0,0,0,0,0,-0.147,-0.1489,-0.1493,-0.1506,-0.1517,-0.1533,-0.1539,-0.1544,-0.1555,-0.1555,-0.1566,-0.1569,-0.1581,-0.1589,-0.1585,-0.1605,-0.1605,-0.1606,-0.1599,-0.16,-0.16,-0.1598,-0.1589,0,0,0,0,0,-0.1469,-0.148,-0.1496,-0.1506,-0.1511,-0.1524,-0.1531,-0.1537,-0.1549,-0.1554,-0.1564,-0.1575,-0.1587,-0.1594,-0.1605,-0.1617,-0.1621,-0.1622,-0.1622,-0.1622,-0.1623,-0.1631,-0.1631,-0.1623,-0.1623,-0.1623,0,0,-0.1468,-0.148,-0.1486,-0.1504,-0.1514,-0.1524,-0.1528,-0.1539,-0.1547,-0.1555,-0.1568,-0.1577,-0.159,-0.1603,-0.1609,-0.1609,-0.1626,-0.1623,-0.1623,-0.1623,-0.1631,-0.1632,-0.1633,-0.1623,-0.1623,-0.1623,0,0,-0.1471,-0.1481,-0.1491,-0.15,-0.1515,-0.1524,-0.1526,-0.1542,-0.1548,-0.1561,-0.1568,-0.1578,-0.1597,-0.1606,-0.1613,-0.1622,-0.1626,-0.1625,-0.1626,-0.1633,-0.1634,-0.1634,-0.1637,-0.1638,-0.1626,-0.1626,-0.1626,0,-0.1468,-0.1484,-0.1495,-0.1506,-0.1514,-0.1523,-0.1533,-0.1542,-0.1559,-0.1564,-0.1565,-0.1589,-0.1599,-0.1614,-0.1616,-0.1622,-0.1625,-0.1623,-0.1633,-0.1633,-0.1634,-0.1637,-0.1638,-0.1626,-0.1626,-0.1626,-0.1626,0,-0.1479,-0.1491,-0.1497,-0.1514,-0.1523,-0.1533,-0.1545,-0.1553,-0.1559,-0.1568,-0.1582,-0.1594,-0.1608,-0.1612,-0.1617,-0.1629,-0.1628,-0.1631,-0.1631,-0.1635,-0.1638,-0.1639,-0.1625,-0.1625,-0.1625,-0.1625,0,0,-0.1476,-0.15,-0.1502,-0.1511,-0.1528,-0.1537,-0.1548,-0.1562,-0.1569,-0.1581,-0.159,-0.1607,-0.1609,-0.1617,-0.1624,-0.1631,-0.1637,-0.1632,-0.1633,-0.1633,-0.165,-0.1648,-0.165,-0.164,-0.1641,-0.1641,-0.1649,0,-0.1482,-0.1502,-0.1513,-0.1528,-0.1539,-0.1549,-0.1558,-0.157,-0.1579,-0.1589,-0.1599,-0.161,-0.1613,-0.1618,-0.1625,-0.1635,-0.1641,-0.1634,-0.1649,-0.165,-0.1645,-0.1651,-0.1649,-0.1657,-0.1651,-0.1651,-0.1651,0,-0.1491,-0.1504,-0.1521,-0.1538,-0.1543,-0.1551,-0.1565,-0.1575,-0.1589,-0.1595,-0.1605,-0.1612,-0.1624,-0.1624,-0.1641,-0.1636,-0.1643,-0.1649,-0.1649,-0.1651,-0.165,-0.1653,-0.1659,-0.166,-0.1653,-0.1653,-0.1653,0,-0.1487,-0.1508,-0.1522,-0.1528,-0.1548,-0.1554,-0.1563,-0.1577,-0.1585,-0.1597,-0.1603,-0.1616,-0.1624,-0.1634,-0.1645,-0.1644,-0.1661,-0.1661,-0.1666,-0.1666,-0.1669,-0.1668,-0.1676,-0.1674,-0.1674,-0.1673,-0.1673,0,-0.1492,-0.1502,-0.152,-0.1528,-0.154,-0.1552,-0.1564,-0.1573,-0.1585,-0.1595,-0.1604,-0.1613,-0.1627,-0.1638,-0.1646,-0.1659,-0.1662,-0.1668,-0.167,-0.1667,-0.1666,-0.1671,-0.1671,-0.1674,-0.1674,-0.1674,-0.1674,0,-0.149,-0.1502,-0.1517,-0.1536,-0.154,-0.1548,-0.1564,-0.1572,-0.1582,-0.1594,-0.1598,-0.1613,-0.1626,-0.1638,-0.1656,-0.1661,-0.1675,-0.1677,-0.167,-0.1671,-0.1675,-0.1675,-0.1686,-0.1689,-0.1684,-0.1684,-0.1685,0,-0.1492,-0.15,-0.152,-0.1527,-0.1536,-0.1548,-0.1557,-0.1569,-0.1578,-0.1595,-0.1601,-0.1615,-0.1628,-0.1649,-0.1661,-0.1675,-0.1678,-0.1681,-0.168,-0.1677,-0.1678,-0.1677,-0.1678,-0.1681,-0.1681,-0.1681,-0.1681,0,-0.1495,-0.1501,-0.1513,-0.1528,-0.1539,-0.1551,-0.1563,-0.1569,-0.1584,-0.1593,-0.1607,-0.1617,-0.1635,-0.165,-0.1665,-0.1674,-0.168,-0.1681,-0.1683,-0.168,-0.1675,-0.1678,-0.167,-0.168,-0.168,-0.168,-0.168,-0.168,-0.1495,-0.1503,-0.1518,-0.1532,-0.1543,-0.1554,-0.1563,-0.1574,-0.1587,-0.1603,-0.161,-0.1624,-0.1639,-0.166,-0.1669,-0.168,-0.1681,-0.1684,-0.1685,-0.1685,-0.1685,-0.1674,-0.1683,-0.1683,-0.1683,-0.1683,-0.1683,0,-0.1498,-0.1509,-0.1521,-0.1539,-0.155,-0.1555,-0.157,-0.1578,-0.1591,-0.1604,-0.1616,-0.1633,-0.1647,-0.1661,-0.1676,-0.1682,-0.1685,-0.1686,-0.1685,-0.1687,-0.1683,-0.168,-0.1683,-0.1683,-0.1683,-0.1683,-0.1683,-0.1683,-0.1501,-0.1515,-0.1523,-0.1543,-0.1553,-0.1568,-0.1576,-0.1587,-0.1597,-0.1616,-0.1628,-0.1637,-0.165,-0.1666,-0.168,-0.1683,-0.1688,-0.1688,-0.1692,-0.1688,-0.1687,-0.1687,-0.1685,-0.1689,-0.1689,-0.1696,-0.1696,-0.1696]},{"header":{"parameterUnit":"m.s-1","parameterCategory":1,"la1":30.2991,"la2":30.254,"lo1":-89.0895,"lo2":-89.0444,"dy":0.0017,"dx":0.0017,"nx":28,"ny":28,"refTime":"2024-12-17T03:00:00:Z","depth":0,"parameterNumber":3,"parameterNumberName":"V-component_of_WINDS"},"data":[0,0,0,0,0,0,0,0,0,0,0,0,0,0,0,0,0,0,0,0,0,0,0,0,0,0,0,0,0,0,0,0,0,0,0,0,0,0,0,0,0,0,0,0,0,0,0,0,0,0,0,0,0,0,0,0,0,0,-1.7333,-1.7334,0,-1.7384,-1.7385,-1.7386,-1.7389,-1.7388,-1.7387,-1.7387,-1.7435,-1.7437,-1.7439,0,0,0,0,0,0,0,0,0,0,0,0,0,-1.7235,-1.7237,-1.7333,-1.7334,-1.7335,-1.7384,-1.7385,-1.7386,-1.7389,-1.7388,-1.7387,-1.7387,-1.7434,-1.7436,-1.7439,0,0,0,0,0,0,0,0,0,0,0,0,0,-1.7281,-1.7237,-1.7333,-1.7342,-1.7344,-1.7384,-1.7385,-1.7386,-1.7389,-1.7388,-1.7387,-1.7386,-1.7434,-1.7436,-1.7439,-1.7473,0,0,-1.7447,-1.7448,0,0,0,0,0,0,0,0,-1.7278,-1.7284,-1.734,-1.7342,-1.7343,-1.7379,-1.7368,-1.7415,-1.7389,-1.7371,-1.7387,-1.7386,-1.7417,-1.7421,-1.7432,-1.7475,-1.7477,-1.7448,-1.7449,-1.745,-1.7451,0,0,0,0,0,0,0,-1.7275,-1.7282,-1.7353,-1.7341,-1.7343,-1.7343,-1.7348,-1.7377,-1.7398,-1.7373,-1.7373,-1.738,-1.7417,-1.743,-1.7433,-1.7478,-1.7447,-1.745,-1.7452,-1.7453,-1.7551,-1.7552,0,0,0,0,0,0,-1.7271,-1.728,-1.7352,-1.7355,-1.7308,-1.7345,-1.7351,-1.7369,-1.7398,-1.7402,-1.738,-1.7379,-1.7425,-1.743,-1.7435,-1.7477,-1.745,-1.7453,-1.7454,-1.755,-1.7551,-1.7553,0,0,0,0,0,0,-1.7269,-1.7277,-1.735,-1.7317,-1.7327,-1.7348,-1.7367,-1.737,-1.7382,-1.7404,-1.7407,-1.7389,-1.7425,-1.7431,-1.7464,-1.7478,-1.7454,-1.7457,-1.7549,-1.7551,-1.7552,-1.756,0,0,0,0,0,0,-1.7266,-1.7276,-1.729,-1.7318,-1.7328,-1.7379,-1.7368,-1.7372,-1.7387,-1.7387,-1.7413,-1.7416,-1.7425,-1.746,-1.7466,-1.7482,-1.7459,-1.7548,-1.755,-1.7551,-1.7559,-1.7562,-1.7564,0,0,0,0,0,-1.7262,-1.7289,-1.7291,-1.73,-1.7346,-1.7379,-1.7385,-1.7396,-1.7389,-1.7402,-1.7416,-1.7415,-1.7476,-1.7463,-1.7471,-1.7487,-1.7547,-1.7549,-1.7551,-1.7557,-1.7561,-1.7564,0,0,0,0,0,0,-1.7261,-1.7293,-1.7295,-1.7332,-1.7353,-1.738,-1.7397,-1.74,-1.7422,-1.7421,-1.7432,-1.7438,-1.747,-1.7482,-1.7467,-1.7521,-1.751,-1.7514,-1.7512,-1.7516,-1.7519,-1.7515,-1.7461,0,0,0,0,0,-1.7266,-1.7291,-1.7317,-1.7347,-1.7358,-1.7376,-1.7391,-1.7398,-1.7419,-1.7427,-1.7444,-1.7464,-1.7487,-1.7502,-1.7525,-1.7561,-1.7566,-1.7576,-1.7578,-1.7581,-1.7584,-1.7603,-1.7608,-1.756,-1.756,-1.756,0,0,-1.7274,-1.7295,-1.731,-1.7348,-1.7365,-1.739,-1.7383,-1.741,-1.7428,-1.7431,-1.7463,-1.7476,-1.7499,-1.7533,-1.7549,-1.7544,-1.7598,-1.7584,-1.7585,-1.7587,-1.7606,-1.761,-1.7614,-1.7561,-1.7561,-1.7561,0,0,-1.7303,-1.7321,-1.7349,-1.7367,-1.7393,-1.7405,-1.7412,-1.7439,-1.7447,-1.748,-1.7483,-1.7504,-1.7545,-1.7561,-1.7575,-1.7611,-1.7611,-1.7618,-1.7633,-1.7652,-1.7655,-1.7659,-1.7671,-1.7676,-1.7621,-1.7621,-1.7621,0,-1.7309,-1.7349,-1.7362,-1.7389,-1.7405,-1.7411,-1.7438,-1.7455,-1.7487,-1.7497,-1.7492,-1.7543,-1.7559,-1.7597,-1.7606,-1.7617,-1.7624,-1.7615,-1.7654,-1.7658,-1.7661,-1.7673,-1.7678,-1.7622,-1.7622,-1.7622,-1.7622,0,-1.7356,-1.7383,-1.7402,-1.7435,-1.7453,-1.748,-1.7496,-1.7513,-1.7519,-1.7531,-1.7564,-1.7584,-1.7611,-1.762,-1.7625,-1.7659,-1.7655,-1.7652,-1.7641,-1.7666,-1.7677,-1.7682,-1.7623,-1.7623,-1.7622,-1.7622,0,0,-1.7383,-1.7425,-1.7431,-1.7447,-1.7477,-1.7498,-1.7525,-1.7553,-1.7567,-1.7589,-1.7612,-1.7647,-1.7644,-1.7659,-1.7666,-1.7683,-1.771,-1.7677,-1.7678,-1.7682,-1.7748,-1.775,-1.7755,-1.7711,-1.7712,-1.7712,-1.7746,0,-1.7415,-1.7465,-1.7478,-1.752,-1.7545,-1.7552,-1.7575,-1.7596,-1.7608,-1.763,-1.7644,-1.7668,-1.7663,-1.7672,-1.7689,-1.7703,-1.7723,-1.7701,-1.773,-1.7731,-1.7724,-1.7761,-1.7763,-1.7794,-1.7751,-1.7751,-1.7752,0,-1.7458,-1.7483,-1.7528,-1.7556,-1.7567,-1.7588,-1.7616,-1.7637,-1.766,-1.7668,-1.7686,-1.7692,-1.7719,-1.7708,-1.7746,-1.773,-1.7743,-1.7752,-1.7753,-1.7756,-1.7742,-1.7764,-1.7804,-1.7809,-1.7759,-1.7759,-1.7758,0,-1.7473,-1.7518,-1.7551,-1.7564,-1.7598,-1.7612,-1.7627,-1.765,-1.7666,-1.7689,-1.77,-1.7725,-1.7739,-1.7759,-1.7771,-1.7761,-1.7807,-1.7797,-1.7813,-1.7813,-1.7822,-1.7821,-1.7864,-1.7831,-1.7831,-1.7831,-1.7831,0,-1.7507,-1.7534,-1.7559,-1.7579,-1.7609,-1.7624,-1.7653,-1.7667,-1.7688,-1.771,-1.7717,-1.7737,-1.7752,-1.7775,-1.7784,-1.7814,-1.782,-1.7826,-1.7828,-1.7825,-1.7824,-1.7833,-1.7831,-1.7833,-1.7832,-1.7832,-1.7832,0,-1.7528,-1.7546,-1.7582,-1.7612,-1.762,-1.7641,-1.7666,-1.7685,-1.7698,-1.7726,-1.7734,-1.7754,-1.7781,-1.7795,-1.7828,-1.7834,-1.7867,-1.7868,-1.7859,-1.786,-1.7876,-1.7874,-1.7925,-1.7933,-1.7896,-1.7896,-1.7896,0,-1.7548,-1.7569,-1.7602,-1.7618,-1.7633,-1.7659,-1.7676,-1.7692,-1.7709,-1.7738,-1.7754,-1.7781,-1.7804,-1.7846,-1.7862,-1.7888,-1.7889,-1.7905,-1.7892,-1.7889,-1.7888,-1.7887,-1.7889,-1.7907,-1.7907,-1.7908,-1.7908,0,-1.758,-1.7589,-1.7614,-1.7643,-1.7664,-1.7687,-1.771,-1.7722,-1.7741,-1.776,-1.7789,-1.7806,-1.7841,-1.7868,-1.7894,-1.7908,-1.7911,-1.7912,-1.7917,-1.7914,-1.7908,-1.7911,-1.7865,-1.791,-1.791,-1.791,-1.791,-1.791,-1.7601,-1.7621,-1.7647,-1.7675,-1.7695,-1.7716,-1.7736,-1.7752,-1.7777,-1.7807,-1.7814,-1.7844,-1.7867,-1.7904,-1.7918,-1.7941,-1.7937,-1.7945,-1.7946,-1.7948,-1.7948,-1.7905,-1.7945,-1.7945,-1.7945,-1.7945,-1.7945,0,-1.7634,-1.7652,-1.7678,-1.771,-1.7732,-1.7736,-1.7761,-1.7779,-1.7805,-1.7827,-1.785,-1.7883,-1.7909,-1.7929,-1.7955,-1.7969,-1.7971,-1.7976,-1.7974,-1.7977,-1.795,-1.7943,-1.7974,-1.7974,-1.7974,-1.7974,-1.7974,-1.7974,-1.7653,-1.7686,-1.7698,-1.7741,-1.7758,-1.7788,-1.7803,-1.7822,-1.784,-1.7876,-1.7899,-1.7912,-1.7933,-1.7962,-1.7986,-1.7991,-1.8,-1.8004,-1.8009,-1.7982,-1.7979,-1.7976,-1.797,-1.8006,-1.8006,-1.8034,-1.8035,-1.8035]}]]